This demonstration page uses our WeatherBlox Daily Observations layout. Learn more.

Left ArrowRight Arrow

Hourly Observations for February 12, 2016

Temp ( °F °C ) Dew Point ( °F °C ) Humidity (%) Winds ( mph kmh ) Pressure ( in mb ) Visibility ( mi km ) Precip ( " mm )
12:58 am 00:58 Cloudy 26 -3.5 20 -6.5 80 80 N 6 9 30.28 1025 10 16 0.00 0.00
1:58 am 01:58 Cloudy 26 -3.6 20 -6.5 81 81 NNW 3 6 30.29 1026 10 16 0.00 0.00
2:49 am 02:49 Cloudy 25 -4 21 -6 86 86 NW 6 9 30.33 1027 10 16 0.00 0.00
2:58 am 02:58 Cloudy 26 -3.5 21 -6.1 82 82 NW 5 7 30.30 1026 10 16 0.00 0.00
3:58 am 03:58 Cloudy 26 -3.2 22 -5.6 84 84 NNW 7 11 30.32 1027 10 16 0.00 0.00
4:43 am 04:43 Cloudy 25 -4 21 -6 86 86 N 6 9 30.39 1029 10 16 0.00 0.00
4:58 am 04:58 Cloudy 25 -4 20 -6.5 83 83 N 10 17 30.35 1028 10 16 0.00 0.00
5:47 am 05:47 Mostly Cloudy 23 -5 18 -8 80 80 N 13 20 30.42 1030 10 16 0.00 0.00
5:58 am 05:58 Mostly Cloudy 22 -5.7 17 -8.3 82 82 N 10 17 30.40 1029 10 16 0.00 0.00
6:58 am 06:58 Cloudy 21 -5.9 16 -8.7 81 81 NNW 10 17 30.42 1030 10 16 0.00 0.00
7:27 am 07:27 Cloudy 21 -6 16 -9 80 80 N 8 13 30.48 1032 10 16 0.00 0.00
7:58 am 07:58 Cloudy 22 -5.5 17 -8.4 80 80 VRB 7 11 30.45 1031 10 16 0.00 0.00
8:01 am 08:01 Cloudy 21 -6 16 -9 80 80 NNW 7 11 30.48 1032 10 16 0.00 0.00
8:58 am 08:58 Cloudy 22 -5.4 17 -8.6 78 78 N 10 17 30.49 1032 10 16 0.00 0.00
9:26 am 09:26 Cloudy 23 -5 16 -9 74 74 N 10 17 30.53 1034 10 16 0.00 0.00
9:58 am 09:58 Cloudy 24 -4.2 16 -9 70 70 N 14 22 30.52 1033 10 16 0.00 0.00
10:18 am 10:18 Mostly Cloudy 25 -4 16 -9 69 69 N 12 19 30.56 1035 10 16 0.00 0.00
10:30 am 10:30 Cloudy 25 -4 16 -9 69 69 NNW 15 24 30.56 1035 10 16 0.00 0.00
10:58 am 10:58 Cloudy 25 -4.1 15 -9.3 67 67 N 14 22 30.55 1034 10 16 0.00 0.00
11:07 am 11:07 Mostly Cloudy 25 -4 14 -10 63 63 NNW 12 19 30.59 1036 10 16 0.00 0.00
11:21 am 11:21 Mostly Cloudy 25 -4 14 -10 63 63 N 16 26 30.59 1036 10 16 0.00 0.00
11:58 am 11:58 Mostly Cloudy 26 -3.5 12 -11 56 56 N 13 20 30.55 1035 10 16 0.00 0.00
12:13 pm 12:13 Mostly Cloudy 25 -4 12 -11 59 59 NNW 13 20 30.59 1036 10 16 0.00 0.00
12:47 pm 12:47 Sunny 27 -3 12 -11 54 54 NNW 16 26 30.59 1036 10 16 0.00 0.00
12:58 pm 12:58 Mostly Sunny 26 -3.3 12 -11.3 54 54 N 15 24 30.57 1035 10 16 0.00 0.00
1:06 pm 13:06 Partly Cloudy 27 -3 12 -11 54 54 NNW 18 30 30.59 1036 10 16 0.00 0.00
1:58 pm 13:58 Mostly Sunny 26 -3.6 10 -12.2 52 52 N 13 20 30.58 1036 10 16 0.00 0.00
2:58 pm 14:58 Sunny 24 -4.3 10 -12.2 55 55 NNW 16 26 30.58 1035 10 16 0.00 0.00
3:58 pm 15:58 Sunny 23 -5.1 7 -14 50 50 NNW 10 17 30.61 1037 10 16 0.00 0.00
4:58 pm 16:58 Sunny 21 -6 2 -16.6 43 43 NNE 8 13 30.62 1037 10 16 0.00 0.00
5:58 pm 17:58 Mostly Clear 17 -8.1 5 -14.9 58 58 N 10 17 30.66 1038 10 16 0.00 0.00
6:58 pm 18:58 Clear 16 -8.8 2 -16.7 53 53 N 7 11 30.67 1039 10 16 0.00 0.00
7:58 pm 19:58 Mostly Clear 15 -9.4 1 -17.3 53 53 N 9 15 30.67 1039 10 16 0.00 0.00
8:58 pm 20:58 Cloudy 15 -9.4 1 -17.2 53 53 N 7 11 30.70 1040 10 16 0.00 0.00
9:58 pm 21:58 Cloudy 14 -9.8 0 -17.6 53 53 NNE 8 13 30.71 1040 10 16 0.00 0.00
10:58 pm 22:58 Cloudy 14 -9.9 2 -16.9 57 57 N 7 11 30.70 1040 10 16 0.00 0.00
11:58 pm 23:58 Cloudy 14 -10.1 2 -16.4 60 60 NNE 9 15 30.70 1040 10 16 0.00 0.00

Powered by AerisWeather